Airport Information

KCOE - Pappy Boyington Airport

KCOE 191756Z AUTO 29009KT 10SM BKN070 18/02 A2994 RMK AO2 SLP144 T01780022 10189 20111 58004


  • General Information

  • Coordinates: N 47°46'27"/ W 116°49'10"
  • Location: N/A
  • Surveyed Elevation: 2320 MSL

Operations

Flow Name Active Runways Conditions

Green background denotes normal operations.


Common Frequencies

Callsign Frequency Position Name

More at the Document Center


Charts